Terminal Aerodrome Forecast
Issued by NWS

Home | Current Version | Previous Version | Text Only | Print | Product List | Glossary On
Versions: 1 2 3 4 5 6 7 8 9 10 11 12
000
FTUS46 KHNX 220522
TAFFAT
TAF
KFAT 220522Z 2206/2306 31010KT P6SM SKC
     FM221200 VRB03KT P6SM SKC
     FM230000 31006KT P6SM SKC=

USA.gov is the U.S. government's official web portal to all federal, state and local government web resources and services.